No particular awareness of the weather is required.    There are no Weather-warnings


Meteo18 Weather Cam more information Meteo18 Weather Cam


Thunder radar more information blitzortung!


Rain radar more information rain snow radar


Visit our other weather sites:

Template documentation
and downloads

And another site



Weather Underground History page Text

Daily Summary for October 6, 2016 Units:  Metric    English   Both
« Previous Day
Next Day »
Daily Weekly Monthly Yearly Custom
  High: Low: Average:
Temperature: 14.7 °C 4.1 °C 9.5 °C
Dew Point: 6.5 °C 2.0 °C 4.2 °C
Humidity: 87 % 50 % 71 %
Wind Speed: 27.4 km/h 0.0 km/h 11.1 km/h
Wind Gust: 35.4 km/h - -
Wind:- - ENE
Pressure: 1019.5 hPa 1013.8 hPa -
Precipitation: 0.0 mm    
Historical Graphs
 
 
Tabular Data for October 6, 2016
Time Temperature Dew Point Pressure Wind Wind Speed Wind Gust Humidity Rainfall Rate (Hourly)
00:02 8.7 °C 4.5 °C 1019.5 hPa NNE 11.3 km/h 17.7 km/h 75 % 0.0 mm
00:12 8.6 °C 4.4 °C 1019.5 hPa NNE 12.9 km/h 19.3 km/h 75 % 0.0 mm
00:17 8.5 °C 4.3 °C 1019.5 hPa ENE 16.1 km/h 19.3 km/h 75 % 0.0 mm
00:22 8.4 °C 4.2 °C 1019.2 hPa ENE 9.7 km/h 17.7 km/h 75 % 0.0 mm
00:27 8.4 °C 4.2 °C 1019.2 hPa NE 14.5 km/h 17.7 km/h 75 % 0.0 mm
00:32 8.3 °C 4.1 °C 1019.2 hPa NE 9.7 km/h 17.7 km/h 75 % 0.0 mm
00:37 8.3 °C 4.1 °C 1019.2 hPa NE 9.7 km/h 16.1 km/h 75 % 0.0 mm
00:42 8.3 °C 4.1 °C 1019.2 hPa NE 9.7 km/h 19.3 km/h 75 % 0.0 mm
00:47 8.3 °C 4.1 °C 1019.2 hPa NNE 17.7 km/h 19.3 km/h 75 % 0.0 mm
00:52 8.3 °C 4.1 °C 1018.8 hPa NE 8.0 km/h 24.1 km/h 75 % 0.0 mm
00:57 8.3 °C 4.1 °C 1018.8 hPa NE 19.3 km/h 24.1 km/h 75 % 0.0 mm
01:02 8.2 °C 4.0 °C 1018.8 hPa NE 14.5 km/h 24.1 km/h 75 % 0.0 mm
01:12 8.0 °C 3.8 °C 1018.8 hPa NE 16.1 km/h 20.9 km/h 75 % 0.0 mm
01:17 7.9 °C 3.7 °C 1018.8 hPa NNE 8.0 km/h 20.9 km/h 75 % 0.0 mm
01:22 7.9 °C 3.7 °C 1018.8 hPa NE 20.9 km/h 22.5 km/h 75 % 0.0 mm
01:27 7.9 °C 3.7 °C 1018.8 hPa NNE 12.9 km/h 22.5 km/h 75 % 0.0 mm
01:32 7.9 °C 3.7 °C 1018.8 hPa NE 12.9 km/h 22.5 km/h 75 % 0.0 mm
01:42 7.7 °C 3.7 °C 1018.8 hPa NE 3.2 km/h 19.3 km/h 76 % 0.0 mm
01:47 7.7 °C 3.7 °C 1018.8 hPa NE 1.6 km/h 14.5 km/h 76 % 0.0 mm
01:52 7.6 °C 3.6 °C 1018.8 hPa Calm   14.5 km/h 76 % 0.0 mm
01:57 7.4 °C 3.4 °C 1018.8 hPa NNE 4.8 km/h 12.9 km/h 76 % 0.0 mm
02:02 7.4 °C 3.4 °C 1018.8 hPa NE 3.2 km/h 11.3 km/h 76 % 0.0 mm
02:07 7.3 °C 3.3 °C 1018.8 hPa NNW 6.4 km/h 14.5 km/h 76 % 0.0 mm
02:12 7.2 °C 3.4 °C 1018.8 hPa NNE 6.4 km/h 16.1 km/h 77 % 0.0 mm
02:17 7.1 °C 3.3 °C 1018.8 hPa NNE 9.7 km/h 16.1 km/h 77 % 0.0 mm
02:22 7.1 °C 3.3 °C 1018.8 hPa Calm   11.3 km/h 77 % 0.0 mm
02:27 6.9 °C 3.3 °C 1018.8 hPa NNE 8.0 km/h 11.3 km/h 78 % 0.0 mm
02:32 6.9 °C 3.1 °C 1018.8 hPa NNE 4.8 km/h 11.3 km/h 77 % 0.0 mm
02:37 6.9 °C 3.1 °C 1018.8 hPa North 3.2 km/h 11.3 km/h 77 % 0.0 mm
02:42 6.9 °C 3.1 °C 1018.8 hPa Calm   12.9 km/h 77 % 0.0 mm
02:47 6.9 °C 3.1 °C 1018.8 hPa Calm   12.9 km/h 77 % 0.0 mm
02:52 6.8 °C 3.1 °C 1018.8 hPa Calm   12.9 km/h 77 % 0.0 mm
02:57 6.8 °C 3.1 °C 1018.8 hPa NNE 8.0 km/h 8.0 km/h 77 % 0.0 mm
03:02 6.8 °C 3.1 °C 1018.8 hPa NE 3.2 km/h 8.0 km/h 77 % 0.0 mm
03:07 6.8 °C 3.1 °C 1018.8 hPa NE 4.8 km/h 20.9 km/h 77 % 0.0 mm
03:12 6.7 °C 3.0 °C 1018.8 hPa NE 8.0 km/h 20.9 km/h 77 % 0.0 mm
03:17 6.7 °C 3.0 °C 1018.8 hPa NE 4.8 km/h 20.9 km/h 77 % 0.0 mm
03:22 6.6 °C 2.9 °C 1018.8 hPa NE 6.4 km/h 17.7 km/h 77 % 0.0 mm
03:27 6.6 °C 2.9 °C 1018.8 hPa North 3.2 km/h 17.7 km/h 77 % 0.0 mm
03:32 6.5 °C 2.8 °C 1018.8 hPa NE 8.0 km/h 14.5 km/h 77 % 0.0 mm
03:37 6.5 °C 2.8 °C 1018.8 hPa NNE 6.4 km/h 14.5 km/h 77 % 0.0 mm
03:42 6.4 °C 2.7 °C 1018.8 hPa NNE 3.2 km/h 14.5 km/h 77 % 0.0 mm
03:47 6.3 °C 2.7 °C 1018.8 hPa ENE 1.6 km/h 12.9 km/h 78 % 0.0 mm
03:52 6.4 °C 2.7 °C 1018.5 hPa NE 3.2 km/h 12.9 km/h 77 % 0.0 mm
03:57 6.3 °C 2.6 °C 1018.5 hPa NNE 6.4 km/h 17.7 km/h 77 % 0.0 mm
04:02 6.2 °C 2.5 °C 1018.5 hPa Calm   17.7 km/h 77 % 0.0 mm
04:07 6.1 °C 2.6 °C 1018.5 hPa Calm   9.7 km/h 78 % 0.0 mm
04:12 6.1 °C 2.6 °C 1018.5 hPa NE 16.1 km/h 16.1 km/h 78 % 0.0 mm
04:17 6.2 °C 2.5 °C 1018.5 hPa NE 4.8 km/h 16.1 km/h 77 % 0.0 mm
04:22 6.2 °C 2.5 °C 1018.5 hPa NE 12.9 km/h 16.1 km/h 77 % 0.0 mm
04:27 6.1 °C 2.4 °C 1018.2 hPa NNE 1.6 km/h 16.1 km/h 77 % 0.0 mm
04:32 6.0 °C 2.5 °C 1018.2 hPa NNE 6.4 km/h 12.9 km/h 78 % 0.0 mm
04:37 5.8 °C 2.3 °C 1018.2 hPa NNW 4.8 km/h 12.9 km/h 78 % 0.0 mm
04:42 5.8 °C 2.4 °C 1018.2 hPa NNE 1.6 km/h 17.7 km/h 79 % 0.0 mm
04:47 5.6 °C 2.4 °C 1018.2 hPa NNW 4.8 km/h 17.7 km/h 80 % 0.0 mm
04:52 5.5 °C 2.3 °C 1018.2 hPa North 4.8 km/h 17.7 km/h 80 % 0.0 mm
05:02 5.4 °C 2.4 °C 1017.8 hPa North 8.0 km/h 20.9 km/h 81 % 0.0 mm
05:07 5.4 °C 2.4 °C 1017.8 hPa NNE 3.2 km/h 20.9 km/h 81 % 0.0 mm
05:12 5.3 °C 2.3 °C 1017.8 hPa NE 6.4 km/h 20.9 km/h 81 % 0.0 mm
05:17 5.3 °C 2.3 °C 1017.8 hPa NNE 4.8 km/h 19.3 km/h 81 % 0.0 mm
05:22 5.4 °C 2.4 °C 1017.8 hPa NE 6.4 km/h 19.3 km/h 81 % 0.0 mm
05:27 5.4 °C 2.4 °C 1017.8 hPa ESE 9.7 km/h 22.5 km/h 81 % 0.0 mm
05:32 5.4 °C 2.4 °C 1017.8 hPa NNE 11.3 km/h 22.5 km/h 81 % 0.0 mm
05:37 5.3 °C 2.3 °C 1017.8 hPa NE 17.7 km/h 22.5 km/h 81 % 0.0 mm
05:42 5.3 °C 2.3 °C 1017.8 hPa NE 8.0 km/h 22.5 km/h 81 % 0.0 mm
05:47 5.3 °C 2.5 °C 1017.8 hPa NNE 14.5 km/h 22.5 km/h 82 % 0.0 mm
05:52 5.3 °C 2.5 °C 1017.8 hPa NE 17.7 km/h 20.9 km/h 82 % 0.0 mm
05:57 5.3 °C 2.5 °C 1017.8 hPa NW 4.8 km/h 27.4 km/h 82 % 0.0 mm
06:02 5.2 °C 2.4 °C 1017.8 hPa North 14.5 km/h 27.4 km/h 82 % 0.0 mm
06:07 5.2 °C 2.4 °C 1017.8 hPa NW 9.7 km/h 27.4 km/h 82 % 0.0 mm
06:12 5.1 °C 2.3 °C 1017.8 hPa NNE 16.1 km/h 22.5 km/h 82 % 0.0 mm
06:17 5.0 °C 2.4 °C 1017.8 hPa NE 12.9 km/h 22.5 km/h 83 % 0.0 mm
06:22 4.9 °C 2.3 °C 1017.8 hPa NE 9.7 km/h 22.5 km/h 83 % 0.0 mm
06:27 4.9 °C 2.3 °C 1017.5 hPa NE 11.3 km/h 17.7 km/h 83 % 0.0 mm
06:32 4.8 °C 2.3 °C 1017.5 hPa NE 1.6 km/h 14.5 km/h 84 % 0.0 mm
06:42 4.7 °C 2.2 °C 1017.5 hPa NE 6.4 km/h 14.5 km/h 84 % 0.0 mm
06:52 4.6 °C 2.3 °C 1017.5 hPa NNE 4.8 km/h 16.1 km/h 85 % 0.0 mm
06:57 4.5 °C 2.2 °C 1017.5 hPa NNE 3.2 km/h 12.9 km/h 85 % 0.0 mm
07:12 4.4 °C 2.1 °C 1017.5 hPa ENE 3.2 km/h 11.3 km/h 85 % 0.0 mm
07:17 4.4 °C 2.1 °C 1017.5 hPa NNE 8.0 km/h 12.9 km/h 85 % 0.0 mm
07:22 4.4 °C 2.3 °C 1017.2 hPa NNE 6.4 km/h 16.1 km/h 86 % 0.0 mm
07:27 4.4 °C 2.1 °C 1017.2 hPa NNE 8.0 km/h 16.1 km/h 85 % 0.0 mm
07:32 4.3 °C 2.2 °C 1017.2 hPa NNE 14.5 km/h 16.1 km/h 86 % 0.0 mm
07:37 4.3 °C 2.2 °C 1017.2 hPa NNW 4.8 km/h 16.1 km/h 86 % 0.0 mm
07:42 4.3 °C 2.2 °C 1017.5 hPa NE 9.7 km/h 19.3 km/h 86 % 0.0 mm
07:47 4.3 °C 2.2 °C 1017.2 hPa North 8.0 km/h 19.3 km/h 86 % 0.0 mm
07:52 4.2 °C 2.1 °C 1017.2 hPa NE 4.8 km/h 14.5 km/h 86 % 0.0 mm
07:57 4.1 °C 2.0 °C 1017.2 hPa NE 8.0 km/h 14.5 km/h 86 % 0.0 mm
08:07 4.1 °C 2.1 °C 1017.2 hPa NNE 6.4 km/h 12.9 km/h 87 % 0.0 mm
08:12 4.3 °C 2.2 °C 1017.2 hPa NNW 4.8 km/h 16.1 km/h 86 % 0.0 mm
08:17 4.5 °C 2.4 °C 1017.5 hPa NE 11.3 km/h 16.1 km/h 86 % 0.0 mm
08:22 4.6 °C 2.3 °C 1017.5 hPa NNE 11.3 km/h 17.7 km/h 85 % 0.0 mm
08:27 4.8 °C 2.5 °C 1017.5 hPa NNE 14.5 km/h 17.7 km/h 85 % 0.0 mm
08:32 4.9 °C 2.4 °C 1017.5 hPa NNE 11.3 km/h 24.1 km/h 84 % 0.0 mm
08:37 5.0 °C 2.5 °C 1017.5 hPa North 14.5 km/h 24.1 km/h 84 % 0.0 mm
08:42 5.1 °C 2.6 °C 1017.5 hPa ENE 12.9 km/h 24.1 km/h 84 % 0.0 mm
08:47 5.3 °C 2.6 °C 1017.5 hPa NW 4.8 km/h 22.5 km/h 83 % 0.0 mm
08:52 5.4 °C 2.7 °C 1017.5 hPa NE 9.7 km/h 22.5 km/h 83 % 0.0 mm
08:57 5.5 °C 2.8 °C 1017.5 hPa NE 8.0 km/h 22.5 km/h 83 % 0.0 mm
09:02 5.6 °C 2.8 °C 1017.5 hPa North 9.7 km/h 22.5 km/h 82 % 0.0 mm
09:07 5.7 °C 2.9 °C 1017.5 hPa NE 11.3 km/h 20.9 km/h 82 % 0.0 mm
09:12 5.8 °C 3.0 °C 1017.5 hPa NE 9.7 km/h 20.9 km/h 82 % 0.0 mm
09:17 5.9 °C 3.1 °C 1017.5 hPa NE 8.0 km/h 19.3 km/h 82 % 0.0 mm
09:22 5.9 °C 2.9 °C 1017.2 hPa ENE 8.0 km/h 19.3 km/h 81 % 0.0 mm
09:27 6.1 °C 3.1 °C 1017.2 hPa NE 12.9 km/h 19.3 km/h 81 % 0.0 mm
09:32 6.2 °C 3.2 °C 1017.2 hPa NNE 9.7 km/h 25.7 km/h 81 % 0.0 mm
09:37 6.3 °C 3.3 °C 1017.2 hPa NE 11.3 km/h 25.7 km/h 81 % 0.0 mm
09:42 6.4 °C 3.2 °C 1017.2 hPa NNE 12.9 km/h 19.3 km/h 80 % 0.0 mm
09:47 6.5 °C 3.3 °C 1017.2 hPa NE 9.7 km/h 19.3 km/h 80 % 0.0 mm
09:52 6.6 °C 3.4 °C 1017.2 hPa NNE 4.8 km/h 20.9 km/h 80 % 0.0 mm
10:02 6.8 °C 3.4 °C 1017.2 hPa NE 12.9 km/h 24.1 km/h 79 % 0.0 mm
10:07 7.1 °C 3.9 °C 1017.2 hPa NNE 11.3 km/h 24.1 km/h 80 % 0.0 mm
10:12 7.3 °C 3.9 °C 1017.2 hPa NNE 14.5 km/h 24.1 km/h 79 % 0.0 mm
10:17 7.6 °C 4.0 °C 1017.2 hPa NE 14.5 km/h 25.7 km/h 78 % 0.0 mm
10:22 7.7 °C 3.7 °C 1017.2 hPa NE 9.7 km/h 25.7 km/h 76 % 0.0 mm
10:27 7.9 °C 4.1 °C 1017.2 hPa NNE 11.3 km/h 25.7 km/h 77 % 0.0 mm
10:32 8.0 °C 3.8 °C 1017.2 hPa ENE 9.7 km/h 22.5 km/h 75 % 0.0 mm
10:37 8.2 °C 3.8 °C 1016.8 hPa NE 16.1 km/h 22.5 km/h 74 % 0.0 mm
10:42 8.2 °C 3.8 °C 1016.8 hPa ENE 11.3 km/h 22.5 km/h 74 % 0.0 mm
10:47 8.3 °C 3.9 °C 1016.8 hPa NNE 16.1 km/h 24.1 km/h 74 % 0.0 mm
10:52 8.5 °C 3.9 °C 1016.8 hPa NNE 11.3 km/h 25.7 km/h 73 % 0.0 mm
10:57 8.7 °C 4.1 °C 1016.8 hPa NE 12.9 km/h 25.7 km/h 73 % 0.0 mm
11:02 8.7 °C 3.9 °C 1016.5 hPa East 19.3 km/h 27.4 km/h 72 % 0.0 mm
11:07 8.9 °C 3.9 °C 1016.5 hPa ENE 17.7 km/h 27.4 km/h 71 % 0.0 mm
11:12 9.1 °C 3.9 °C 1016.5 hPa NE 14.5 km/h 27.4 km/h 70 % 0.0 mm
11:17 9.2 °C 4.2 °C 1016.1 hPa ENE 12.9 km/h 24.1 km/h 71 % 0.0 mm
11:22 9.4 °C 4.2 °C 1016.1 hPa NE 12.9 km/h 24.1 km/h 70 % 0.0 mm
11:27 9.5 °C 3.9 °C 1016.1 hPa NE 16.1 km/h 24.1 km/h 68 % 0.0 mm
11:32 9.6 °C 4.0 °C 1016.1 hPa North 17.7 km/h 27.4 km/h 68 % 0.0 mm
11:37 9.8 °C 3.7 °C 1015.8 hPa NE 11.3 km/h 27.4 km/h 66 % 0.0 mm
11:42 9.9 °C 3.8 °C 1015.8 hPa NE 14.5 km/h 27.4 km/h 66 % 0.0 mm
11:47 10.2 °C 3.9 °C 1015.8 hPa NNE 19.3 km/h 29.0 km/h 65 % 0.0 mm
11:52 10.3 °C 3.6 °C 1015.8 hPa NNE 25.7 km/h 29.0 km/h 63 % 0.0 mm
11:57 10.3 °C 3.6 °C 1015.8 hPa ENE 17.7 km/h 29.0 km/h 63 % 0.0 mm
12:02 10.7 °C 4.2 °C 1015.8 hPa NNE 22.5 km/h 29.0 km/h 64 % 0.0 mm
12:07 10.7 °C 3.9 °C 1015.8 hPa NE 14.5 km/h 29.0 km/h 63 % 0.0 mm
12:12 10.9 °C 3.9 °C 1015.5 hPa ENE 9.7 km/h 25.7 km/h 62 % 0.0 mm
12:17 10.9 °C 3.7 °C 1015.5 hPa ENE 9.7 km/h 27.4 km/h 61 % 0.0 mm
12:22 11.0 °C 3.8 °C 1015.5 hPa ENE 9.7 km/h 27.4 km/h 61 % 0.0 mm
12:27 11.2 °C 3.7 °C 1015.5 hPa North 16.1 km/h 25.7 km/h 60 % 0.0 mm
12:32 11.2 °C 3.7 °C 1015.5 hPa ENE 9.7 km/h 29.0 km/h 60 % 0.0 mm
12:37 11.4 °C 4.4 °C 1015.5 hPa NNE 8.0 km/h 29.0 km/h 62 % 0.0 mm
12:42 11.6 °C 3.9 °C 1015.5 hPa NE 12.9 km/h 29.0 km/h 59 % 0.0 mm
12:47 11.6 °C 4.1 °C 1015.5 hPa NE 6.4 km/h 29.0 km/h 60 % 0.0 mm
12:52 11.8 °C 4.0 °C 1015.5 hPa NNE 20.9 km/h 29.0 km/h 59 % 0.0 mm
12:57 11.9 °C 4.1 °C 1015.1 hPa NE 16.1 km/h 29.0 km/h 59 % 0.0 mm
13:02 12.1 °C 4.1 °C 1015.1 hPa ENE 6.4 km/h 29.0 km/h 58 % 0.0 mm
13:07 12.2 °C 4.2 °C 1015.1 hPa ENE 22.5 km/h 30.6 km/h 58 % 0.0 mm
13:12 12.4 °C 4.4 °C 1015.1 hPa ENE 19.3 km/h 30.6 km/h 58 % 0.0 mm
13:17 12.7 °C 4.4 °C 1015.1 hPa ENE 8.0 km/h 30.6 km/h 57 % 0.0 mm
13:22 12.9 °C 4.6 °C 1015.1 hPa NE 24.1 km/h 30.6 km/h 57 % 0.0 mm
13:27 12.8 °C 4.5 °C 1014.8 hPa North 16.1 km/h 29.0 km/h 57 % 0.0 mm
13:32 12.8 °C 4.0 °C 1014.8 hPa North 20.9 km/h 32.2 km/h 55 % 0.0 mm
13:37 13.1 °C 4.5 °C 1014.8 hPa NE 11.3 km/h 32.2 km/h 56 % 0.0 mm
13:42 13.2 °C 4.4 °C 1014.8 hPa NE 19.3 km/h 32.2 km/h 55 % 0.0 mm
13:47 13.2 °C 3.8 °C 1014.4 hPa ENE 17.7 km/h 27.4 km/h 53 % 0.0 mm
13:52 13.4 °C 4.3 °C 1014.4 hPa NE 24.1 km/h 32.2 km/h 54 % 0.0 mm
14:02 13.4 °C 4.0 °C 1014.4 hPa NE 17.7 km/h 32.2 km/h 53 % 0.0 mm
14:07 13.6 °C 4.2 °C 1014.4 hPa North 8.0 km/h 32.2 km/h 53 % 0.0 mm
14:12 14.1 °C 4.7 °C 1014.4 hPa NE 24.1 km/h 32.2 km/h 53 % 0.0 mm
14:17 14.0 °C 4.0 °C 1014.4 hPa ENE 17.7 km/h 30.6 km/h 51 % 0.0 mm
14:22 14.2 °C 4.5 °C 1014.4 hPa NE 16.1 km/h 33.8 km/h 52 % 0.0 mm
14:27 14.2 °C 4.5 °C 1014.4 hPa North 9.7 km/h 33.8 km/h 52 % 0.0 mm
14:32 14.3 °C 4.6 °C 1014.4 hPa ENE 19.3 km/h 33.8 km/h 52 % 0.0 mm
14:37 14.4 °C 4.9 °C 1014.4 hPa ENE 12.9 km/h 33.8 km/h 53 % 0.0 mm
14:42 14.5 °C 5.0 °C 1014.1 hPa NE 11.3 km/h 33.8 km/h 53 % 0.0 mm
14:47 14.6 °C 4.3 °C 1014.1 hPa ENE 24.1 km/h 29.0 km/h 50 % 0.0 mm
14:52 14.3 °C 4.6 °C 1014.1 hPa NE 12.9 km/h 35.4 km/h 52 % 0.0 mm
14:57 14.5 °C 5.8 °C 1014.1 hPa NNE 27.4 km/h 35.4 km/h 56 % 0.0 mm
15:02 13.9 °C 5.5 °C 1014.1 hPa NE 14.5 km/h 35.4 km/h 57 % 0.0 mm
15:07 13.8 °C 6.2 °C 1014.1 hPa NW 11.3 km/h 35.4 km/h 60 % 0.0 mm
15:12 14.0 °C 6.1 °C 1014.1 hPa NNE 22.5 km/h 35.4 km/h 59 % 0.0 mm
15:17 13.9 °C 5.0 °C 1014.1 hPa ENE 22.5 km/h 33.8 km/h 55 % 0.0 mm
15:22 13.9 °C 6.0 °C 1014.4 hPa NNE 22.5 km/h 33.8 km/h 59 % 0.0 mm
15:27 14.0 °C 6.1 °C 1014.1 hPa North 14.5 km/h 30.6 km/h 59 % 0.0 mm
15:32 13.8 °C 5.9 °C 1014.1 hPa NNE 16.1 km/h 30.6 km/h 59 % 0.0 mm
15:37 13.7 °C 5.6 °C 1014.1 hPa NNE 22.5 km/h 30.6 km/h 58 % 0.0 mm
15:42 13.6 °C 5.5 °C 1014.1 hPa NNE 16.1 km/h 30.6 km/h 58 % 0.0 mm
15:47 13.8 °C 5.4 °C 1014.1 hPa NNE 14.5 km/h 30.6 km/h 57 % 0.0 mm
15:52 13.7 °C 5.6 °C 1014.1 hPa NE 17.7 km/h 30.6 km/h 58 % 0.0 mm
15:57 13.8 °C 5.4 °C 1014.1 hPa NNE 14.5 km/h 30.6 km/h 57 % 0.0 mm
16:02 14.0 °C 5.4 °C 1014.1 hPa ENE 16.1 km/h 30.6 km/h 56 % 0.0 mm
16:07 14.0 °C 5.4 °C 1014.1 hPa East 16.1 km/h 30.6 km/h 56 % 0.0 mm
16:12 14.3 °C 5.1 °C 1014.1 hPa NNE 20.9 km/h 24.1 km/h 54 % 0.0 mm
16:17 14.2 °C 5.0 °C 1014.1 hPa NNE 20.9 km/h 32.2 km/h 54 % 0.0 mm
16:22 14.2 °C 5.3 °C 1013.8 hPa NNE 11.3 km/h 32.2 km/h 55 % 0.0 mm
16:27 14.4 °C 5.2 °C 1013.8 hPa ENE 16.1 km/h 32.2 km/h 54 % 0.0 mm
16:32 14.4 °C 5.5 °C 1013.8 hPa ENE 14.5 km/h 29.0 km/h 55 % 0.0 mm
16:37 14.4 °C 5.7 °C 1013.8 hPa ENE 8.0 km/h 24.1 km/h 56 % 0.0 mm
16:42 14.6 °C 5.4 °C 1013.8 hPa NE 12.9 km/h 24.1 km/h 54 % 0.0 mm
16:47 14.7 °C 5.5 °C 1013.8 hPa ENE 12.9 km/h 25.7 km/h 54 % 0.0 mm
16:52 14.6 °C 5.7 °C 1013.8 hPa NE 22.5 km/h 25.7 km/h 55 % 0.0 mm
16:57 14.5 °C 5.8 °C 1013.8 hPa North 4.8 km/h 25.7 km/h 56 % 0.0 mm
17:02 14.6 °C 5.4 °C 1013.8 hPa NE 17.7 km/h 27.4 km/h 54 % 0.0 mm
17:07 14.3 °C 5.6 °C 1013.8 hPa NNW 17.7 km/h 29.0 km/h 56 % 0.0 mm
17:12 14.2 °C 5.8 °C 1013.8 hPa North 8.0 km/h 30.6 km/h 57 % 0.0 mm
17:17 14.4 °C 5.7 °C 1013.8 hPa NE 16.1 km/h 30.6 km/h 56 % 0.0 mm
17:22 14.4 °C 5.2 °C 1013.8 hPa NE 20.9 km/h 35.4 km/h 54 % 0.0 mm
17:27 14.3 °C 5.1 °C 1013.8 hPa NE 17.7 km/h 35.4 km/h 54 % 0.0 mm
17:32 14.4 °C 5.5 °C 1013.8 hPa NE 17.7 km/h 35.4 km/h 55 % 0.0 mm
17:37 14.4 °C 5.2 °C 1013.8 hPa ENE 14.5 km/h 27.4 km/h 54 % 0.0 mm
17:42 14.5 °C 5.3 °C 1013.8 hPa NNE 22.5 km/h 27.4 km/h 54 % 0.0 mm
17:47 14.5 °C 5.3 °C 1013.8 hPa NE 17.7 km/h 30.6 km/h 54 % 0.0 mm
17:52 14.4 °C 4.9 °C 1013.8 hPa NE 8.0 km/h 30.6 km/h 53 % 0.0 mm
17:57 14.5 °C 5.3 °C 1013.8 hPa ENE 11.3 km/h 30.6 km/h 54 % 0.0 mm
18:02 14.3 °C 6.4 °C 1013.8 hPa NE 17.7 km/h 29.0 km/h 59 % 0.0 mm
18:07 14.2 °C 6.3 °C 1013.8 hPa NE 16.1 km/h 22.5 km/h 59 % 0.0 mm
18:12 14.1 °C 6.5 °C 1013.8 hPa North 11.3 km/h 24.1 km/h 60 % 0.0 mm
18:17 14.1 °C 6.2 °C 1013.8 hPa NE 17.7 km/h 25.7 km/h 59 % 0.0 mm
18:22 14.0 °C 6.1 °C 1013.8 hPa ENE 11.3 km/h 25.7 km/h 59 % 0.0 mm
18:32 13.9 °C 6.0 °C 1013.8 hPa NE 17.7 km/h 25.7 km/h 59 % 0.0 mm
18:37 13.8 °C 6.2 °C 1013.8 hPa NNE 11.3 km/h 20.9 km/h 60 % 0.0 mm
18:42 13.7 °C 6.3 °C 1013.8 hPa NE 11.3 km/h 19.3 km/h 61 % 0.0 mm
18:47 13.7 °C 6.3 °C 1013.8 hPa NNW 8.0 km/h 19.3 km/h 61 % 0.0 mm
18:52 13.5 °C 6.4 °C 1013.8 hPa NNE 12.9 km/h 19.3 km/h 62 % 0.0 mm
18:57 13.3 °C 6.2 °C 1013.8 hPa North 6.4 km/h 19.3 km/h 62 % 0.0 mm
19:02 13.2 °C 6.3 °C 1014.1 hPa ENE 4.8 km/h 19.3 km/h 63 % 0.0 mm
19:07 13.0 °C 6.1 °C 1014.1 hPa NNE 3.2 km/h 16.1 km/h 63 % 0.0 mm
19:12 12.8 °C 6.2 °C 1014.1 hPa NNE 1.6 km/h 12.9 km/h 64 % 0.0 mm
19:17 12.5 °C 6.1 °C 1014.1 hPa NE 3.2 km/h 11.3 km/h 65 % 0.0 mm
19:22 12.3 °C 6.3 °C 1014.4 hPa NNW 1.6 km/h 8.0 km/h 67 % 0.0 mm
19:27 12.1 °C 6.4 °C 1014.1 hPa North 9.7 km/h 9.7 km/h 68 % 0.0 mm
19:32 11.8 °C 6.3 °C 1014.1 hPa NNE 8.0 km/h 9.7 km/h 69 % 0.0 mm
19:37 11.7 °C 6.4 °C 1014.1 hPa North 1.6 km/h 9.7 km/h 70 % 0.0 mm
19:42 11.5 °C 6.2 °C 1014.1 hPa NNE 1.6 km/h 9.7 km/h 70 % 0.0 mm
19:47 11.3 °C 6.2 °C 1014.4 hPa NE 1.6 km/h 9.7 km/h 71 % 0.0 mm
19:52 11.2 °C 6.1 °C 1014.4 hPa NE 1.6 km/h 9.7 km/h 71 % 0.0 mm
20:02 11.0 °C 6.1 °C 1014.4 hPa ENE 3.2 km/h 9.7 km/h 72 % 0.0 mm
20:12 10.9 °C 6.3 °C 1014.4 hPa NE 3.2 km/h 11.3 km/h 73 % 0.0 mm
20:17 10.9 °C 6.3 °C 1014.4 hPa NE 4.8 km/h 14.5 km/h 73 % 0.0 mm
20:27 10.8 °C 6.2 °C 1014.4 hPa NNW 3.2 km/h 14.5 km/h 73 % 0.0 mm
20:32 10.8 °C 6.2 °C 1014.4 hPa ENE 4.8 km/h 16.1 km/h 73 % 0.0 mm
20:42 10.8 °C 6.2 °C 1014.4 hPa NE 3.2 km/h 16.1 km/h 73 % 0.0 mm
20:47 10.8 °C 6.2 °C 1014.4 hPa North 3.2 km/h 16.1 km/h 73 % 0.0 mm
20:52 11.1 °C 6.4 °C 1014.4 hPa NE 19.3 km/h 19.3 km/h 73 % 0.0 mm
20:57 11.2 °C 6.3 °C 1014.4 hPa NNW 16.1 km/h 22.5 km/h 72 % 0.0 mm
21:07 11.2 °C 6.3 °C 1014.4 hPa NNE 9.7 km/h 25.7 km/h 72 % 0.0 mm
21:17 10.9 °C 6.3 °C 1014.4 hPa WNW 4.8 km/h 22.5 km/h 73 % 0.0 mm
21:22 10.9 °C 6.3 °C 1014.4 hPa North 6.4 km/h 24.1 km/h 73 % 0.0 mm
21:27 10.7 °C 6.3 °C 1014.4 hPa ENE 11.3 km/h 24.1 km/h 74 % 0.0 mm
21:32 10.7 °C 6.3 °C 1014.4 hPa NE 9.7 km/h 24.1 km/h 74 % 0.0 mm
21:42 10.4 °C 6.2 °C 1014.4 hPa NE 17.7 km/h 24.1 km/h 75 % 0.0 mm
21:47 10.3 °C 6.3 °C 1014.4 hPa NE 9.7 km/h 20.9 km/h 76 % 0.0 mm
21:52 10.3 °C 6.3 °C 1014.4 hPa NE 9.7 km/h 20.9 km/h 76 % 0.0 mm
22:02 10.3 °C 6.3 °C 1014.4 hPa NE 12.9 km/h 19.3 km/h 76 % 0.0 mm
22:12 10.2 °C 6.2 °C 1014.4 hPa NE 9.7 km/h 20.9 km/h 76 % 0.0 mm
22:17 10.2 °C 6.2 °C 1014.4 hPa NE 19.3 km/h 20.9 km/h 76 % 0.0 mm
22:22 10.1 °C 6.1 °C 1014.4 hPa NE 14.5 km/h 20.9 km/h 76 % 0.0 mm
22:27 10.0 °C 6.2 °C 1014.4 hPa NNE 19.3 km/h 20.9 km/h 77 % 0.0 mm
22:32 10.0 °C 6.2 °C 1014.4 hPa NNE 16.1 km/h 22.5 km/h 77 % 0.0 mm
22:42 9.9 °C 6.1 °C 1014.4 hPa NNW 6.4 km/h 22.5 km/h 77 % 0.0 mm
22:47 9.8 °C 6.0 °C 1014.8 hPa NE 8.0 km/h 19.3 km/h 77 % 0.0 mm
22:52 9.8 °C 6.0 °C 1014.8 hPa ENE 11.3 km/h 20.9 km/h 77 % 0.0 mm
22:57 9.7 °C 5.9 °C 1014.8 hPa North 8.0 km/h 20.9 km/h 77 % 0.0 mm
23:02 9.6 °C 6.0 °C 1014.8 hPa NNE 9.7 km/h 20.9 km/h 78 % 0.0 mm
23:12 9.4 °C 5.8 °C 1014.8 hPa NNE 11.3 km/h 17.7 km/h 78 % 0.0 mm
23:17 9.3 °C 5.7 °C 1014.8 hPa ENE 12.9 km/h 20.9 km/h 78 % 0.0 mm
23:22 9.3 °C 5.7 °C 1014.8 hPa NNE 12.9 km/h 20.9 km/h 78 % 0.0 mm
23:27 9.3 °C 5.7 °C 1014.8 hPa NNE 11.3 km/h 20.9 km/h 78 % 0.0 mm
23:32 9.2 °C 5.7 °C 1014.8 hPa NNW 4.8 km/h 20.9 km/h 79 % 0.0 mm
23:42 9.2 °C 5.7 °C 1014.8 hPa NE 12.9 km/h 19.3 km/h 79 % 0.0 mm
23:47 9.2 °C 5.7 °C 1014.8 hPa ENE 14.5 km/h 20.9 km/h 79 % 0.0 mm
23:52 9.1 °C 5.7 °C 1014.8 hPa NE 14.5 km/h 20.9 km/h 79 % 0.0 mm
23:57 8.9 °C 5.6 °C 1014.8 hPa NNE 4.8 km/h 20.9 km/h 80 % 0.0 mm
Meteo18
Compliments of Weather Underground - 4 mb

Script developed by  Jim McMurry - jmcmurry@mwt.net Adapted for the template by  Wim van der Kuil - Leuven-Template.eu

You find our weather info also at:

European Weather Network

Weather Underground

Equipment we use:

Weather-station
Davis Vue

Weather-program
Meteohub

Weather-server
Raspberry PI 2 B+

Provider
1 and 1

Davis Vue

Meteohub

Raspberry PI 2 B+

1 and 1